Theta_e
300 301 301 302 303 303 304 305 304 306 307 307 307 304 309 311 313 315 313 309 306 306 303 305 308 308 307 310 311 306 308 306 308 312 314 313 314 312 312 312 310 312 312 311 311 314 317 312 310 311 314 311 310 312
300 300 301 301 302 303 303 304 305 306 307 306 306 306 306 308 309 312 310 309 306 308 308 302 305 307 309 309 308 307 312 309 310 312 309 310 311 310 314 315 309 314 313 316 314 318 314 311 314 311 311 313 312 312
300 300 301 301 301 302 303 303 303 305 306 306 307 307 305 305 310 310 312 305 306 307 308 306 305 306 305 307 307 309 305 307 307 308 308 310 313 310 313 313 313 310 309 313 314 315 312 311 311 311 310 311 312 311
300 300 300 301 301 302 303 303 303 304 306 306 306 306 306 305 306 308 309 308 308 309 312 309 303 305 306 305 305 305 304 302 304 306 309 311 313 309 313 312 312 312 310 312 313 313 311 311 311 312 312 311 311 310
299 300 300 300 301 301 302 303 304 304 305 306 306 304 305 306 306 309 310 311 310 313 313 306 301 304 305 304 303 303 304 305 307 307 309 312 309 309 305 306 310 308 312 313 314 314 314 314 311 311 311 311 310 310
299 299 300 300 300 301 301 302 303 303 305 305 304 303 304 306 305 305 310 309 310 309 306 309 302 303 303 303 303 303 304 304 306 308 309 307 305 309 312 310 309 308 309 311 312 313 311 311 308 307 308 308 308 308
299 299 300 300 300 301 301 302 303 302 302 303 303 303 304 306 305 306 309 309 310 308 304 303 304 302 302 303 303 304 303 305 306 307 308 308 307 306 311 310 307 306 308 309 310 310 309 308 308 307 306 307 307 307
299 299 299 300 301 301 301 302 302 302 302 303 303 301 303 304 303 304 304 305 308 304 304 304 304 305 303 306 306 304 306 306 305 307 305 307 306 306 311 307 306 306 306 307 308 308 309 310 307 307 306 306 306 307
298 298 299 300 301 301 301 302 302 301 302 301 302 302 302 301 304 305 305 307 305 302 302 303 307 308 303 305 305 305 307 309 303 308 307 307 308 310 307 306 305 305 305 306 306 307 307 306 307 307 306 305 305 306
298 299 300 300 301 301 301 302 302 301 301 301 301 302 303 303 304 306 302 299 299 297 300 307 305 306 305 306 307 308 308 310 309 307 304 307 307 306 306 306 306 306 306 306 306 306 306 306 306 306 307 306 306 305
297 298 300 300 301 301 301 302 302 302 300 301 302 303 303 303 302 301 300 301 299 302 300 302 304 304 302 306 307 306 309 307 308 307 308 309 307 305 304 305 305 306 306 306 307 306 307 306 306 306 306 305 304 304
301 298 299 300 300 301 301 302 301 301 300 301 302 300 299 297 298 301 303 302 305 307 303 304 303 305 302 305 306 304 308 305 309 303 306 307 307 306 305 306 306 307 306 306 306 306 305 305 305 305 305 305 303 303
301 299 299 301 301 301 300 301 301 301 301 301 301 301 300 300 301 305 305 306 307 304 302 303 304 303 303 304 305 306 307 309 303 305 307 306 307 306 307 308 308 307 306 306 305 305 304 304 303 303 304 303 303 302
300 301 300 301 301 301 301 300 300 301 300 302 301 302 302 303 302 305 305 306 304 304 303 306 306 306 305 307 307 309 306 304 308 307 307 308 306 307 308 307 305 304 303 303 303 303 303 303 303 302 301 302 302 302
300 299 299 301 301 301 300 300 300 300 299 300 300 302 303 302 302 303 303 302 302 303 305 305 306 306 306 307 306 303 304 309 309 309 309 308 307 307 306 305 305 305 304 303 303 302 302 302 302 301 301 301 302 301
300 300 301 300 301 301 300 300 300 299 298 299 299 302 302 303 304 302 303 303 302 303 305 306 308 308 309 309 307 308 308 308 309 306 307 307 306 306 305 303 304 304 303 302 302 302 302 301 302 302 301 301 301 301
300 300 301 300 301 300 300 299 298 299 299 299 301 300 302 302 303 303 304 303 303 304 306 308 309 309 307 309 308 309 309 309 307 307 306 305 306 304 302 301 301 301 301 301 301 301 301 300 300 300 301 300 300 299
299 299 301 301 301 299 298 296 297 299 298 299 301 301 300 300 302 303 303 302 304 305 306 307 305 307 308 309 309 308 305 305 306 307 307 305 303 302 300 302 300 300 301 301 301 300 300 300 301 302 301 299 298 298
299 299 299 300 298 296 294 295 296 300 298 299 300 300 301 301 300 303 303 302 303 302 303 304 306 309 308 306 307 307 305 305 308 306 304 302 301 300 300 300 300 300 301 300 300 301 301 301 302 300 299 299 299 298
299 300 300 299 298 296 297 295 294 297 300 300 299 300 301 301 301 302 303 303 303 303 304 305 307 306 306 305 304 306 305 306 305 305 304 302 300 300 300 300 301 300 299 298 298 298 298 297 298 298 299 299 298 297
299 300 299 298 296 296 296 295 297 298 299 299 300 301 302 301 303 303 303 303 302 303 305 304 304 303 301 301 301 301 302 302 305 307 307 303 300 300 299 299 298 298 299 299 299 298 298 299 297 297 297 298 298 297
298 299 297 297 294 294 297 296 298 298 300 301 301 302 303 303 304 303 303 302 304 305 304 304 303 304 302 302 302 301 301 300 300 301 300 300 299 299 299 299 298 299 299 299 299 299 297 296 296 296 296 295 295 295
296 294 295 295 296 296 296 296 300 300 301 301 302 303 304 303 303 303 305 303 304 303 304 303 302 302 302 300 299 299 298 300 301 301 300 301 300 300 299 297 299 299 298 297 297 297 296 295 295 295 295 295 295 294
295 294 298 298 296 296 296 298 297 301 302 303 304 305 303 304 303 304 305 304 304 300 302 303 303 303 301 300 302 301 300 300 300 299 297 298 299 298 298 297 297 298 298 295 296 296 296 295 295 295 295 295 295 294
298 297 298 297 294 297 298 299 299 301 304 303 303 302 303 302 304 305 304 303 303 302 303 304 303 304 304 303 302 301 299 299 300 300 297 298 298 296 296 296 296 295 295 295 296 296 295 295 295 295 295 295 294 294
299 297 298 296 296 297 298 299 299 301 302 303 303 302 302 303 303 303 302 303 302 303 303 304 304 304 304 303 304 302 301 299 299 300 297 297 298 299 298 298 297 294 295 296 296 296 295 295 295 295 295 294 294 294
294 296 295 293 295 296 298 298 298 300 301 302 302 302 302 303 303 303 301 299 302 302 303 303 304 304 304 303 302 302 300 299 300 300 298 297 298 298 298 299 298 297 294 295 296 296 295 295 295 295 295 294 294 294
294 295 297 295 296 296 298 300 300 301 300 298 300 301 302 302 303 302 301 299 299 300 302 303 303 303 304 303 302 300 298 297 297 296 295 295 296 297 297 298 298 298 295 295 296 295 295 295 295 295 294 294 293 293
297 295 295 296 296 298 299 301 301 300 299 300 301 301 300 298 297 298 297 296 296 300 302 303 302 302 302 302 300 299 297 297 299 299 300 299 297 296 297 298 296 295 295 295 295 296 295 295 295 295 295 294 293 292
296 295 297 297 296 297 298 297 298 296 296 298 297 296 295 295 294 293 292 295 299 301 302 303 302 302 302 301 300 298 298 300 302 302 302 300 300 297 297 296 295 294 295 295 294 294 294 294 294 293 293 292 292 292
295 296 296 296 296 293 293 292 292 293 293 295 293 296 297 295 294 292 291 293 297 299 301 301 302 302 302 302 301 300 300 298 300 301 302 301 300 298 297 296 295 295 295 294 294 294 294 294 293 293 292 292 292 292
295 296 297 297 296 293 291 294 294 295 294 295 295 293 295 296 299 298 293 293 297 299 300 301 301 301 301 301 301 301 302 302 299 300 300 301 299 298 297 296 295 295 295 294 295 294 294 294 293 293 293 292 292 292
293 293 294 294 295 296 294 294 293 294 293 294 294 293 295 297 299 297 294 294 297 299 299 300 300 301 301 301 301 301 301 302 302 301 301 301 301 299 297 296 295 294 295 295 294 294 293 294 294 293 293 293 293 292
Wind_Speed
24 24 24 23 23 24 23 23 24 23 23 25 23 19 15 12 20 47 12 48 20 0 3 5 7 7 5 7 8 10 7 3 5 8 6 5 5 6 4 5 7 9 8 5 5 5 6 11 6 5 2 3 3 6
23 23 22 22 22 22 22 21 21 22 21 24 25 19 16 20 18 10 5 38 30 5 3 7 6 1 12 11 6 12 2 11 7 5 4 4 4 5 6 5 6 6 5 4 9 5 1 12 0 6 3 2 4 6
23 22 21 21 20 20 20 19 21 22 21 23 25 21 16 12 11 15 2 29 17 3 0 3 5 6 9 13 16 6 2 4 6 3 5 3 4 5 7 6 6 7 7 3 3 7 13 9 10 9 9 9 6 6
21 21 20 20 19 19 19 19 20 22 21 21 22 23 20 14 14 24 13 24 29 4 3 7 6 5 11 12 14 8 10 8 7 3 3 3 3 6 4 0 6 3 11 9 11 11 6 12 13 13 11 11 12 11
20 20 20 20 20 20 19 19 19 20 21 21 21 22 22 19 15 11 11 16 36 7 4 4 4 4 12 15 14 16 18 8 4 4 3 4 3 4 1 1 5 8 9 8 9 6 6 8 6 7 10 12 12 12
20 20 21 21 20 20 19 18 19 21 20 19 19 18 18 17 11 1 2 16 34 12 4 4 3 3 4 12 15 11 8 3 3 4 3 3 2 4 5 7 14 15 14 17 18 14 12 15 6 10 11 10 10 10
21 21 20 21 21 20 18 18 17 16 16 14 14 14 14 15 12 4 1 2 29 13 3 3 3 1 8 9 3 3 4 3 1 3 4 4 4 5 4 11 12 12 17 18 19 17 16 16 8 7 12 10 8 8
22 21 21 20 20 21 19 17 15 16 15 13 10 7 10 8 7 8 29 19 28 11 2 5 4 5 9 6 6 1 4 3 2 4 2 4 3 4 7 11 25 19 12 13 18 16 22 15 7 10 13 11 11 10
24 22 23 22 20 21 19 18 16 18 18 15 10 10 7 5 4 6 12 16 13 6 5 4 9 6 7 6 4 3 4 6 2 5 5 6 8 10 11 18 18 18 17 23 19 20 22 17 22 19 15 14 14 14
24 23 22 19 17 19 19 19 17 18 16 15 10 5 4 6 9 15 4 1 2 2 1 3 5 5 11 7 3 5 2 3 4 7 5 7 14 17 14 17 14 14 21 21 20 21 19 21 21 21 21 16 16 15
33 29 24 20 20 18 19 19 19 19 15 8 4 3 3 9 5 1 4 4 3 5 4 4 5 11 3 10 6 2 5 5 4 5 8 6 7 13 23 24 22 24 24 24 22 22 19 19 17 17 16 16 14 16
33 34 27 21 21 21 21 22 21 21 10 11 8 5 3 3 1 5 5 3 6 8 7 10 8 8 4 4 4 4 4 4 6 7 4 5 4 12 15 21 25 25 22 22 21 21 19 19 18 17 15 13 16 16
21 28 28 24 21 22 24 24 25 20 18 12 2 3 2 3 4 5 7 4 4 8 10 11 13 5 3 2 4 4 8 6 6 5 6 4 3 7 13 16 18 12 11 14 17 16 19 17 21 20 15 18 15 12
9 21 27 27 25 24 23 24 26 25 5 2 4 6 4 4 5 5 4 2 3 6 14 17 11 5 4 4 4 5 3 5 5 6 6 6 9 13 13 9 7 9 11 11 12 11 14 14 13 16 16 14 15 13
13 18 19 22 31 31 25 24 27 20 4 3 3 6 8 3 3 3 2 2 3 13 16 11 6 4 3 4 2 5 4 7 8 4 5 4 12 10 10 10 10 8 8 8 8 9 10 11 10 11 13 13 13 12
6 8 19 25 31 32 28 26 15 6 2 3 3 3 5 3 3 1 2 3 7 11 12 5 4 5 4 6 6 8 7 8 4 6 5 4 8 9 6 7 8 6 7 7 7 8 8 9 9 10 12 13 14 16
2 2 14 25 31 31 32 9 4 3 4 4 4 4 4 3 2 3 6 6 10 13 12 4 6 6 6 5 6 6 6 4 5 3 4 6 4 3 5 5 6 7 7 7 8 9 8 9 11 13 11 12 12 12
3 3 20 32 31 26 7 2 2 3 5 4 4 4 4 1 2 5 5 7 12 15 8 4 5 5 7 8 6 6 5 4 5 3 4 5 5 4 4 7 7 8 8 9 11 11 11 12 10 8 14 15 14 14
3 7 16 34 22 8 4 1 2 5 5 3 3 3 3 2 4 5 7 10 5 2 4 2 2 4 4 4 4 5 5 6 7 5 3 4 4 5 6 6 9 9 11 11 11 7 9 9 10 13 15 15 13 15
3 13 26 27 15 2 3 2 2 3 4 3 3 3 2 2 2 4 6 9 4 2 3 3 5 2 2 2 2 1 0 4 5 4 5 5 4 6 8 8 7 12 11 11 8 9 9 8 9 12 14 15 16 15
9 18 28 16 3 3 3 4 3 3 4 3 4 4 2 4 3 6 5 6 3 3 4 5 3 0 1 1 1 1 3 4 6 6 4 5 6 6 6 10 12 10 6 6 6 6 10 9 12 14 16 15 14 16
5 16 5 4 2 2 2 1 2 3 3 2 5 6 4 4 4 5 6 2 3 7 5 1 2 5 2 3 1 1 1 3 4 3 7 11 7 8 8 9 8 7 6 7 10 8 11 13 15 16 17 17 17 18
12 6 3 3 2 2 3 3 3 3 4 3 4 3 3 4 6 7 4 5 5 4 9 7 4 1 2 1 1 2 1 4 3 3 4 4 8 11 11 13 12 9 7 9 12 14 13 16 17 18 19 20 20 19
6 2 3 4 3 4 3 3 3 2 2 4 4 3 4 3 4 2 4 5 7 2 6 11 8 5 2 1 1 2 3 4 3 3 6 6 7 6 12 13 12 11 11 16 16 16 17 16 18 19 19 20 21 21
3 2 4 3 1 4 5 5 5 3 2 4 4 2 4 3 3 5 4 5 7 8 8 8 8 9 10 5 1 2 4 6 4 4 6 9 9 12 9 9 9 10 16 19 17 19 18 19 17 19 20 19 20 22
3 4 6 7 5 5 6 5 8 5 3 1 2 3 2 2 3 5 4 6 7 7 10 11 11 10 11 10 6 3 4 8 8 3 7 12 15 11 10 9 8 7 16 18 23 22 20 20 20 21 20 20 22 24
4 5 4 0 2 4 4 2 2 2 4 5 3 4 4 4 7 5 3 4 4 7 16 19 13 13 12 10 13 11 9 14 7 4 8 15 13 15 20 14 12 15 26 22 23 25 25 24 23 22 22 22 23 23
2 5 8 7 3 3 5 5 6 7 5 3 7 6 6 8 5 3 4 3 5 4 10 18 22 21 19 20 23 20 14 14 12 11 12 8 9 12 14 13 18 23 31 28 26 23 23 24 25 25 24 23 22 21
2 4 5 5 3 4 4 5 6 4 5 5 6 4 4 3 2 2 1 2 5 7 6 7 10 16 14 18 17 19 26 25 12 9 9 5 5 8 17 17 22 25 28 30 28 28 27 26 25 25 25 25 25 25
5 5 3 5 5 5 2 2 2 2 2 2 1 1 2 2 3 6 7 5 2 4 6 8 15 15 10 11 9 11 19 24 18 9 8 9 10 17 27 25 24 23 25 27 26 24 24 23 21 21 21 21 23 22
5 3 2 2 3 2 2 1 1 0 0 1 2 2 2 3 3 5 7 5 5 5 6 7 9 15 9 10 10 10 8 19 18 15 15 14 20 28 29 27 27 28 29 28 28 28 28 25 23 23 23 23 23 23
3 4 4 3 2 1 1 1 1 1 1 3 1 1 1 1 3 2 4 10 5 5 6 9 9 10 23 24 24 27 24 24 23 22 19 17 21 29 33 31 30 30 31 29 27 28 30 27 24 24 24 24 26 25
2 1 2 2 2 2 2 2 1 1 1 2 2 3 3 2 4 2 4 13 10 6 8 12 13 13 19 20 21 23 24 26 30 32 25 21 22 30 34 32 31 30 33 30 28 29 28 27 25 25 25 26 26 25
Wind_Direction
273 273 271 269 268 267 258 252 249 252 249 239 246 253 249 248 191 207 185 196 170 153 292 238 168 144 133 178 158 140 123 181 164 184 189 179 213 201 205 146 178 178 166 191 196 223 258 157 129 227 81 130 162 190
275 270 270 269 268 266 260 252 247 250 246 241 244 245 246 252 241 256 170 188 181 147 203 277 259 161 185 164 130 178 176 153 163 166 193 148 181 175 198 211 196 208 215 185 206 220 32 185 85 191 167 163 177 203
271 269 265 266 266 264 259 250 249 253 249 243 235 243 248 251 220 230 284 155 149 108 238 304 216 194 178 168 164 146 197 147 167 67 149 155 201 173 179 218 184 220 192 242 220 221 224 229 234 236 223 229 226 218
269 266 264 263 264 261 257 246 244 247 246 246 235 235 240 245 243 229 216 177 169 124 153 217 238 210 192 175 157 131 131 108 109 148 148 158 189 206 203 191 212 167 158 203 246 253 261 247 236 242 240 237 246 248
271 267 262 260 258 256 254 254 252 245 243 237 235 232 236 232 232 233 207 211 202 192 149 162 167 201 167 165 135 130 133 122 147 158 166 196 125 169 176 188 224 186 190 198 234 218 234 274 182 215 216 226 236 235
271 268 262 258 255 252 253 254 253 247 238 231 229 229 233 224 227 211 217 196 197 195 110 151 20 132 141 157 131 129 119 96 160 162 182 184 124 216 211 234 238 211 221 224 243 253 248 270 244 210 224 232 232 232
272 266 261 253 250 248 247 248 252 234 229 219 214 209 206 200 200 208 222 355 194 163 95 99 124 85 171 137 103 120 79 97 240 170 224 198 193 197 236 234 249 207 218 220 233 249 254 240 241 214 223 227 205 219
266 261 257 251 246 241 239 238 241 216 222 206 203 201 192 192 219 250 252 278 162 95 106 137 132 154 183 158 178 39 183 175 224 237 155 203 148 216 242 211 238 238 212 231 233 228 240 258 253 240 228 225 213 219
266 263 256 252 242 232 230 227 225 206 211 204 194 168 157 192 186 219 217 220 168 119 141 165 153 155 164 139 127 152 180 180 127 225 216 185 207 220 204 220 232 233 216 234 236 232 243 244 252 250 230 227 226 228
261 254 249 237 232 226 224 217 210 195 202 187 170 169 191 206 182 128 85 14 88 58 134 155 139 135 170 155 126 123 164 204 193 208 147 228 242 238 226 240 247 241 226 233 239 238 232 236 240 243 238 232 231 236
248 242 236 240 231 222 214 209 200 182 182 175 198 191 57 103 123 148 174 202 146 166 167 160 162 137 180 163 136 196 162 172 220 184 203 227 239 217 224 233 239 242 238 239 235 244 240 231 243 243 240 230 228 233
228 221 226 230 219 214 206 200 190 175 158 181 135 97 78 40 279 203 181 156 213 167 161 150 150 126 137 148 129 177 156 176 236 141 217 244 191 215 210 223 232 237 241 242 238 239 239 241 239 241 239 235 228 226
198 206 214 216 212 208 202 197 184 172 159 144 125 99 127 179 245 223 176 184 186 163 168 149 146 117 113 128 106 145 180 205 131 207 234 236 215 208 220 228 240 237 222 234 240 236 233 233 232 232 236 230 228 210
207 211 216 217 205 196 197 190 180 175 145 123 143 174 202 221 234 230 226 262 108 160 149 148 134 138 139 160 133 153 135 154 226 236 236 235 199 225 225 225 204 200 205 217 226 218 215 217 221 219 220 215 208 202
226 220 216 210 201 195 193 183 177 164 127 164 150 190 209 213 256 252 263 188 162 161 150 139 89 110 104 103 163 117 151 234 223 235 225 198 212 219 221 216 217 219 195 200 201 201 201 200 199 199 200 196 191 172
264 222 205 202 191 189 186 170 154 147 104 151 206 209 189 183 212 243 243 201 180 167 146 99 99 133 169 151 164 199 190 223 215 221 221 187 223 224 209 195 203 198 189 187 187 187 178 183 186 183 171 172 170 167
141 356 176 175 171 171 159 125 116 127 153 185 244 239 254 109 182 217 200 202 180 172 167 128 147 169 122 178 198 202 216 196 225 222 202 209 203 170 168 160 166 164 166 172 170 171 165 157 153 155 156 155 151 150
54 126 168 159 146 136 121 137 114 130 185 200 208 227 209 247 194 214 201 203 184 181 167 179 127 170 184 186 213 195 203 236 251 217 224 181 182 167 171 163 158 164 167 167 164 148 148 153 156 157 148 144 132 133
203 149 164 152 140 103 138 167 155 179 203 170 226 183 176 192 215 225 219 197 203 65 89 22 59 191 208 213 208 189 183 192 210 195 208 188 179 178 171 159 156 162 162 157 153 155 157 160 155 151 148 150 145 149
206 165 159 152 138 103 88 73 154 143 188 192 172 186 167 201 158 228 244 180 174 100 177 208 214 224 199 231 221 17 139 171 170 176 193 189 176 181 178 170 167 156 143 131 130 134 136 130 137 148 159 162 151 150
158 148 144 136 99 135 130 160 153 185 155 192 178 175 155 152 166 190 183 165 169 221 235 219 239 189 271 247 264 257 217 182 210 216 199 173 170 164 157 162 154 153 142 148 162 167 172 169 159 157 153 150 147 146
138 175 102 94 81 36 84 138 98 149 175 172 170 181 167 183 171 164 135 160 213 226 216 199 212 275 161 264 260 202 40 183 183 126 100 125 156 163 170 164 155 162 161 166 170 164 159 154 151 146 146 144 142 141
132 141 115 102 121 136 146 167 161 187 191 199 157 179 182 155 177 143 182 208 243 230 211 210 206 199 348 62 57 30 119 192 192 170 162 177 157 159 153 160 170 161 149 163 154 147 155 148 139 140 141 138 138 139
121 106 121 132 124 147 154 176 197 205 188 203 163 166 156 138 144 175 215 226 237 151 199 197 188 186 143 161 250 237 199 167 135 128 156 152 157 153 156 160 171 162 157 148 144 148 148 145 145 144 141 143 145 150
155 118 117 139 165 139 167 168 176 205 183 170 151 168 163 167 182 190 216 241 225 220 210 193 189 206 216 197 194 240 196 172 175 179 177 179 144 127 130 145 143 147 155 147 150 154 152 149 149 145 147 151 154 153
145 167 175 171 155 176 172 159 185 177 141 110 149 139 165 172 162 241 231 227 222 209 191 191 195 200 213 208 185 186 207 185 173 181 181 186 179 166 160 158 156 169 182 175 156 158 157 153 153 151 152 156 162 153
161 180 175 204 158 150 140 104 128 149 159 156 169 171 160 190 222 237 235 217 213 207 204 200 194 199 199 190 190 184 166 168 166 194 181 178 185 187 172 168 179 178 176 172 168 165 160 158 159 159 158 163 170 168
161 167 174 169 180 207 152 157 165 186 176 170 145 185 204 203 226 216 215 217 246 245 210 202 203 201 198 194 185 152 137 140 126 115 114 127 173 185 184 181 191 185 175 171 170 169 165 160 159 160 162 162 166 170
177 155 134 165 175 203 216 184 187 194 166 169 179 207 234 222 232 238 272 237 260 223 177 168 180 185 175 167 167 165 152 149 150 152 165 168 171 197 188 182 173 168 170 169 179 177 170 165 167 169 166 165 166 166
184 190 162 159 171 211 232 228 224 147 189 184 206 191 257 259 263 252 250 249 211 190 195 185 169 169 165 162 158 164 178 177 185 164 169 192 202 176 177 177 168 168 164 160 159 159 159 152 152 153 154 154 157 160
147 156 108 136 207 212 216 195 214 102 64 2 358 272 274 313 298 250 244 249 252 202 163 164 180 179 170 171 173 172 185 210 213 201 188 178 180 176 175 177 176 168 164 161 159 156 154 158 165 165 165 165 168 168
154 169 147 166 198 188 230 203 146 154 209 207 186 291 298 263 265 264 223 189 196 207 196 172 177 186 186 184 187 192 196 199 192 192 194 186 183 179 178 178 174 169 165 161 161 162 164 165 168 172 171 172 171 174
99 92 80 111 133 202 163 134 102 187 219 220 208 184 221 255 242 269 266 213 209 207 198 197 197 190 190 189 189 190 193 203 205 202 201 201 196 185 180 176 173 171 164 161 164 167 168 169 171 174 174 172 175 178